TimeCDT,TemperatureF,Dew PointF,Humidity,Sea Level PressureIn,VisibilityMPH,Wind Direction,Wind SpeedMPH,Gust SpeedMPH,PrecipitationIn,Events,Conditions,WindDirDegrees,DateUTC
12:15 AM,73.4,68.0,83,30.01,10.0,South,8.1,-,N/A,,Clear,170,2012-11-01 05:15:00
12:35 AM,73.4,68.0,83,30.01,10.0,South,8.1,-,N/A,,Clear,170,2012-11-01 05:35:00
1:15 AM,73.4,68.0,83,30.00,10.0,SSE,5.8,-,N/A,,Clear,160,2012-11-01 06:15:00
1:35 AM,71.6,68.0,88,30.00,10.0,SSE,4.6,-,N/A,,Clear,150,2012-11-01 06:35:00
1:55 AM,71.6,66.2,83,30.00,10.0,SSE,4.6,-,N/A,,Clear,150,2012-11-01 06:55:00
2:15 AM,71.6,68.0,88,29.99,10.0,SSE,4.6,-,N/A,,Clear,150,2012-11-01 07:15:00
2:35 AM,71.6,66.2,83,29.99,10.0,SSE,3.5,-,N/A,,Clear,150,2012-11-01 07:35:00
2:55 AM,71.6,66.2,83,29.99,10.0,SSE,4.6,-,N/A,,Clear,150,2012-11-01 07:55:00
3:15 AM,69.8,66.2,88,29.99,10.0,SSE,4.6,-,N/A,,Clear,160,2012-11-01 08:15:00
3:35 AM,69.8,64.4,83,29.99,10.0,SSE,3.5,-,N/A,,Clear,160,2012-11-01 08:35:00
3:55 AM,69.8,66.2,88,29.98,10.0,SSE,3.5,-,N/A,,Clear,160,2012-11-01 08:55:00
4:15 AM,69.8,66.2,88,29.98,10.0,SSE,3.5,-,N/A,,Clear,160,2012-11-01 09:15:00
4:35 AM,69.8,64.4,83,29.98,10.0,Calm,Calm,-,N/A,,Clear,0,2012-11-01 09:35:00
4:55 AM,69.8,64.4,83,29.99,10.0,Calm,Calm,-,N/A,,Clear,0,2012-11-01 09:55:00
5:15 AM,68.0,64.4,88,29.98,10.0,Calm,Calm,-,N/A,,Clear,0,2012-11-01 10:15:00
5:35 AM,68.0,64.4,88,29.99,10.0,Calm,Calm,-,N/A,,Clear,0,2012-11-01 10:35:00
5:55 AM,68.0,64.4,88,29.98,10.0,Calm,Calm,-,N/A,,Clear,0,2012-11-01 10:55:00
6:15 AM,68.0,64.4,88,29.99,10.0,SSE,3.5,-,N/A,,Clear,160,2012-11-01 11:15:00
6:35 AM,68.0,64.4,88,29.99,10.0,SSE,4.6,-,N/A,,Clear,160,2012-11-01 11:35:00
7:15 AM,68.0,64.4,88,29.99,10.0,Calm,Calm,-,N/A,,Clear,0,2012-11-01 12:15:00
7:35 AM,68.0,64.4,88,30.01,10.0,South,3.5,-,N/A,,Clear,170,2012-11-01 12:35:00
7:55 AM,68.0,64.4,88,30.01,10.0,SSE,3.5,-,N/A,,Clear,160,2012-11-01 12:55:00
8:35 AM,69.8,66.2,88,30.02,10.0,SSE,3.5,-,N/A,,Clear,160,2012-11-01 13:35:00
9:15 AM,73.4,68.0,83,30.03,10.0,South,6.9,-,N/A,,Clear,170,2012-11-01 14:15:00
9:35 AM,77.0,66.2,69,30.04,10.0,South,10.4,-,N/A,Thunderstorm,Clear,180,2012-11-01 14:35:00
9:55 AM,78.8,66.2,65,30.04,10.0,South,9.2,-,N/A,,Clear,170,2012-11-01 14:55:00
10:15 AM,80.6,66.2,61,30.05,10.0,SSE,9.2,-,N/A,,Clear,160,2012-11-01 15:15:00
10:35 AM,82.4,64.4,54,30.05,10.0,SSE,12.7,-,N/A,,Clear,160,2012-11-01 15:35:00
11:15 AM,82.4,64.4,54,30.06,10.0,SSE,13.8,17.3,N/A,,Mostly Cloudy,150,2012-11-01 16:15:00
11:35 AM,82.4,64.4,54,30.06,10.0,SE,12.7,-,N/A,,Overcast,140,2012-11-01 16:35:00
11:55 AM,82.4,66.2,58,30.06,10.0,ESE,10.4,20.7,N/A,,Mostly Cloudy,110,2012-11-01 16:55:00
12:15 PM,84.2,64.4,51,30.05,10.0,SSE,13.8,18.4,N/A,,Mostly Cloudy,150,2012-11-01 17:15:00
12:35 PM,84.2,64.4,51,30.04,10.0,SE,9.2,16.1,N/A,,Scattered Clouds,130,2012-11-01 17:35:00
1:15 PM,87.8,62.6,43,30.01,10.0,SE,10.4,18.4,N/A,,Scattered Clouds,140,2012-11-01 18:15:00
1:35 PM,84.2,62.6,48,30.01,10.0,ESE,9.2,21.9,N/A,,Mostly Cloudy,120,2012-11-01 18:35:00
1:55 PM,86.0,62.6,45,30.00,10.0,ESE,8.1,18.4,N/A,,Scattered Clouds,110,2012-11-01 18:55:00
2:15 PM,87.8,60.8,40,29.98,10.0,SE,8.1,16.1,N/A,,Scattered Clouds,140,2012-11-01 19:15:00
2:35 PM,87.8,59.0,38,29.98,10.0,SSE,9.2,17.3,N/A,,Clear,160,2012-11-01 19:35:00
2:55 PM,87.8,57.2,35,29.96,10.0,South,11.5,-,N/A,,Scattered Clouds,170,2012-11-01 19:55:00
3:15 PM,87.8,55.4,33,29.96,10.0,South,10.4,-,N/A,,Scattered Clouds,170,2012-11-01 20:15:00
3:35 PM,89.6,55.4,31,29.95,10.0,SE,11.5,16.1,N/A,,Scattered Clouds,140,2012-11-01 20:35:00
4:15 PM,87.8,55.4,33,29.94,10.0,SE,8.1,-,N/A,,Clear,130,2012-11-01 21:15:00
4:35 PM,87.8,55.4,33,29.94,10.0,SE,8.1,-,N/A,,Clear,130,2012-11-01 21:35:00
4:55 PM,87.8,55.4,33,29.94,10.0,SE,8.1,-,N/A,,Clear,140,2012-11-01 21:55:00
5:15 PM,86.0,55.4,35,29.94,10.0,SE,10.4,-,N/A,,Clear,140,2012-11-01 22:15:00
5:35 PM,87.8,53.6,31,29.94,10.0,ESE,5.8,-,N/A,,Clear,120,2012-11-01 22:35:00
5:55 PM,86.0,53.6,33,29.94,10.0,SE,8.1,-,N/A,,Clear,140,2012-11-01 22:55:00
6:15 PM,84.2,53.6,35,29.94,10.0,ESE,9.2,-,N/A,,Clear,120,2012-11-01 23:15:00
6:35 PM,82.4,53.6,37,29.95,10.0,ESE,10.4,16.1,N/A,,Clear,110,2012-11-01 23:35:00
6:55 PM,80.6,53.6,39,29.96,10.0,East,9.2,-,N/A,,Clear,100,2012-11-01 23:55:00
7:15 PM,78.8,55.4,44,29.96,10.0,East,9.2,-,N/A,,Clear,100,2012-11-02 00:15:00
7:35 PM,77.0,59.0,54,29.97,10.0,ESE,10.4,-,N/A,,Clear,110,2012-11-02 00:35:00
7:55 PM,77.0,59.0,54,29.98,10.0,ESE,8.1,-,N/A,,Clear,120,2012-11-02 00:55:00
8:15 PM,75.2,60.8,61,29.98,10.0,ESE,10.4,-,N/A,,Clear,120,2012-11-02 01:15:00
8:35 PM,75.2,60.8,61,29.99,10.0,SE,9.2,-,N/A,,Clear,130,2012-11-02 01:35:00
8:55 PM,73.4,60.8,65,29.99,10.0,SE,6.9,-,N/A,,Clear,130,2012-11-02 01:55:00
9:15 PM,73.4,60.8,65,29.99,10.0,SE,6.9,-,N/A,,Clear,140,2012-11-02 02:15:00
9:35 PM,71.6,60.8,69,30.00,10.0,SE,4.6,-,N/A,,Clear,140,2012-11-02 02:35:00
9:55 PM,71.6,60.8,69,30.01,10.0,SSE,3.5,-,N/A,,Clear,150,2012-11-02 02:55:00
10:15 PM,69.8,60.8,73,30.01,10.0,SE,4.6,-,N/A,,Clear,140,2012-11-02 03:15:00
10:35 PM,69.8,60.8,73,30.01,10.0,SSE,4.6,-,N/A,,Clear,150,2012-11-02 03:35:00
10:55 PM,69.8,60.8,73,30.01,10.0,SSE,5.8,-,N/A,,Clear,150,2012-11-02 03:55:00
11:15 PM,69.8,62.6,78,30.00,10.0,SE,3.5,-,N/A,,Clear,130,2012-11-02 04:15:00
11:35 PM,69.8,62.6,78,30.00,10.0,SE,3.5,-,N/A,,Clear,130,2012-11-02 04:35:00
11:55 PM,69.8,62.6,78,30.00,10.0,SSE,3.5,-,N/A,,Clear,150,2012-11-02 04:55:00